Time,TemperatureF,DewpointF,PressureIn,WindDirection,WindDirectionDegrees,WindSpeedMPH,WindSpeedGustMPH,Humidity,HourlyPrecipIn,Conditions,Clouds,dailyrainin,SolarRadiationWatts/m^2,SoftwareType,DateUTC
2013-03-25 00:02:00,19.0,3.0,-100.00,NNE,21,5.0,6.0,48,0.00,,,0.00,0.000000,,2013-03-25 06:02:00,
2013-03-25 00:33:00,18.0,1.0,-100.00,NNE,30,3.0,6.0,47,0.00,,,0.00,0.000000,,2013-03-25 06:33:00,
2013-03-25 00:42:00,18.0,1.0,-100.00,NNE,30,3.0,6.0,47,0.00,,,0.00,0.000000,,2013-03-25 06:42:00,
2013-03-25 00:52:00,18.0,1.0,-100.00,NNE,30,3.0,6.0,47,0.00,,,0.00,0.000000,,2013-03-25 06:52:00,
2013-03-25 01:02:00,18.0,1.0,-100.00,NNE,30,3.0,6.0,47,0.00,,,0.00,0.000000,,2013-03-25 07:02:00,
2013-03-25 01:32:00,18.0,1.0,-100.00,North,358,4.0,5.0,46,0.00,,,0.00,0.000000,,2013-03-25 07:32:00,
2013-03-25 01:42:00,18.0,1.0,-100.00,North,358,4.0,5.0,46,0.00,,,0.00,0.000000,,2013-03-25 07:42:00,
2013-03-25 01:52:00,18.0,1.0,-100.00,North,358,4.0,5.0,46,0.00,,,0.00,0.000000,,2013-03-25 07:52:00,
2013-03-25 02:02:00,18.0,1.0,-100.00,North,358,4.0,5.0,46,0.00,,,0.00,0.000000,,2013-03-25 08:02:00,
2013-03-25 02:32:00,16.0,1.0,-100.00,NNE,12,5.0,8.0,51,0.00,,,0.00,0.000000,,2013-03-25 08:32:00,
2013-03-25 02:43:00,16.0,1.0,-100.00,NNE,12,5.0,8.0,51,0.00,,,0.00,0.000000,,2013-03-25 08:43:00,
2013-03-25 02:52:00,16.0,1.0,-100.00,NNE,12,5.0,8.0,51,0.00,,,0.00,0.000000,,2013-03-25 08:52:00,
2013-03-25 03:02:00,16.0,1.0,-100.00,NNE,12,5.0,8.0,51,0.00,,,0.00,0.000000,,2013-03-25 09:02:00,
2013-03-25 03:33:00,16.0,0.0,-100.00,North,356,5.0,7.0,49,0.00,,,0.00,0.000000,,2013-03-25 09:33:00,
2013-03-25 03:43:00,16.0,0.0,-100.00,North,356,5.0,7.0,49,0.00,,,0.00,0.000000,,2013-03-25 09:43:00,
2013-03-25 03:52:00,16.0,0.0,-100.00,North,356,5.0,7.0,49,0.00,,,0.00,0.000000,,2013-03-25 09:52:00,
2013-03-25 04:02:00,16.0,0.0,-100.00,North,356,5.0,7.0,49,0.00,,,0.00,0.000000,,2013-03-25 10:02:00,
2013-03-25 04:33:00,17.0,0.0,-100.00,North,352,5.0,7.0,47,0.00,,,0.00,0.000000,,2013-03-25 10:33:00,
2013-03-25 04:42:00,17.0,0.0,-100.00,North,352,5.0,7.0,47,0.00,,,0.00,0.000000,,2013-03-25 10:42:00,
2013-03-25 04:53:00,17.0,0.0,-100.00,North,352,5.0,7.0,47,0.00,,,0.00,0.000000,,2013-03-25 10:53:00,
2013-03-25 05:32:00,16.0,1.0,-100.00,North,3,6.0,8.0,51,-99.99,,,0.00,0.000000,,2013-03-25 11:32:00,
2013-03-25 06:02:00,16.0,1.0,-100.00,North,3,6.0,8.0,51,-99.99,,,0.00,0.000000,,2013-03-25 12:02:00,
2013-03-25 06:33:00,15.0,1.0,-100.00,NW,320,3.0,7.0,52,-99.99,,,0.00,0.000000,,2013-03-25 12:33:00,
2013-03-25 06:43:00,15.0,1.0,-100.00,NW,320,3.0,7.0,52,-99.99,,,0.00,0.000000,,2013-03-25 12:43:00,
2013-03-25 06:53:00,15.0,1.0,-100.00,NW,320,3.0,7.0,52,-99.99,,,0.00,0.000000,,2013-03-25 12:53:00,
2013-03-25 07:02:00,15.0,1.0,-100.00,NW,320,3.0,7.0,52,-99.99,,,0.00,0.000000,,2013-03-25 13:02:00,
2013-03-25 07:32:00,15.0,1.0,-100.00,North,357,5.0,7.0,54,-99.99,,,0.00,0.000000,,2013-03-25 13:32:00,
2013-03-25 08:02:00,15.0,1.0,-100.00,North,357,5.0,7.0,54,-99.99,,,0.00,0.000000,,2013-03-25 14:02:00,
2013-03-25 08:32:00,16.0,1.0,-100.00,North,356,4.0,6.0,51,0.00,,,0.00,14.000000,,2013-03-25 14:32:00,
2013-03-25 09:33:00,23.0,3.0,-100.00,NNW,342,2.0,6.0,42,-99.99,,,0.00,34.000000,,2013-03-25 15:33:00,
2013-03-25 10:33:00,28.0,5.0,-100.00,South,173,3.0,7.0,37,-99.99,,,0.00,257.000000,,2013-03-25 16:33:00,
2013-03-25 11:33:00,28.0,4.0,-100.00,SSW,198,8.0,13.0,35,-99.99,,,0.00,620.000000,,2013-03-25 17:33:00,
2013-03-25 12:03:00,28.0,4.0,-100.00,SSW,198,8.0,13.0,35,-99.99,,,0.00,620.000000,,2013-03-25 18:03:00,
2013-03-25 12:33:00,30.0,4.0,-100.00,South,189,11.0,19.0,32,0.00,,,0.00,774.000000,,2013-03-25 18:33:00,
2013-03-25 12:43:00,30.0,4.0,-100.00,South,189,11.0,19.0,32,0.00,,,0.00,774.000000,,2013-03-25 18:43:00,
2013-03-25 12:53:00,30.0,4.0,-100.00,South,189,11.0,19.0,32,0.00,,,0.00,774.000000,,2013-03-25 18:53:00,
2013-03-25 13:02:00,30.0,4.0,-100.00,South,189,11.0,19.0,32,0.00,,,0.00,774.000000,,2013-03-25 19:02:00,
2013-03-25 13:33:00,34.0,5.0,-100.00,SSW,194,9.0,19.0,29,0.00,,,0.00,882.000000,,2013-03-25 19:33:00,
2013-03-25 13:43:00,34.0,5.0,-100.00,SSW,194,9.0,19.0,29,0.00,,,0.00,882.000000,,2013-03-25 19:43:00,
2013-03-25 13:52:00,34.0,5.0,-100.00,SSW,194,9.0,19.0,29,0.00,,,0.00,882.000000,,2013-03-25 19:52:00,
2013-03-25 14:02:00,34.0,5.0,-100.00,SSW,194,9.0,19.0,29,0.00,,,0.00,882.000000,,2013-03-25 20:02:00,
2013-03-25 14:32:00,36.0,2.0,-100.00,SSW,200,10.0,18.0,23,0.00,,,0.00,904.000000,,2013-03-25 20:32:00,
2013-03-25 15:33:00,38.0,4.0,-100.00,South,190,8.0,19.0,24,0.00,,,0.00,888.000000,,2013-03-25 21:33:00,
2013-03-25 15:43:00,38.0,4.0,-100.00,South,190,8.0,19.0,24,0.00,,,0.00,888.000000,,2013-03-25 21:43:00,
2013-03-25 15:52:00,38.0,4.0,-100.00,South,190,8.0,19.0,24,0.00,,,0.00,888.000000,,2013-03-25 21:52:00,
2013-03-25 16:03:00,38.0,4.0,-100.00,South,190,8.0,19.0,24,0.00,,,0.00,888.000000,,2013-03-25 22:03:00,
2013-03-25 16:33:00,38.0,7.0,-100.00,WSW,254,7.0,18.0,27,0.00,,,0.00,740.000000,,2013-03-25 22:33:00,
2013-03-25 16:42:00,38.0,7.0,-100.00,WSW,254,7.0,18.0,27,0.00,,,0.00,740.000000,,2013-03-25 22:42:00,
2013-03-25 16:52:00,38.0,7.0,-100.00,WSW,254,7.0,18.0,27,0.00,,,0.00,740.000000,,2013-03-25 22:52:00,
2013-03-25 17:02:00,38.0,7.0,-100.00,WSW,254,7.0,18.0,27,0.00,,,0.00,740.000000,,2013-03-25 23:02:00,
2013-03-25 17:33:00,39.0,6.0,-100.00,SW,229,9.0,15.0,25,0.00,,,0.00,633.000000,,2013-03-25 23:33:00,
2013-03-25 17:43:00,39.0,6.0,-100.00,SW,229,9.0,15.0,25,0.00,,,0.00,633.000000,,2013-03-25 23:43:00,
2013-03-25 17:52:00,39.0,6.0,-100.00,SW,229,9.0,15.0,25,0.00,,,0.00,633.000000,,2013-03-25 23:52:00,
2013-03-25 18:02:00,39.0,6.0,-100.00,SW,229,9.0,15.0,25,0.00,,,0.00,633.000000,,2013-03-26 00:02:00,
2013-03-25 19:33:00,35.0,9.0,-100.00,West,259,6.0,12.0,33,-99.99,,,0.00,124.000000,,2013-03-26 01:33:00,
2013-03-25 19:42:00,35.0,9.0,-100.00,West,259,6.0,12.0,33,-99.99,,,0.00,124.000000,,2013-03-26 01:42:00,
2013-03-25 19:52:00,35.0,9.0,-100.00,West,259,6.0,12.0,33,-99.99,,,0.00,124.000000,,2013-03-26 01:52:00,
2013-03-25 20:02:00,35.0,9.0,-100.00,West,259,6.0,12.0,33,-99.99,,,0.00,124.000000,,2013-03-26 02:02:00,
2013-03-25 20:32:00,33.0,10.0,-100.00,WSW,243,6.0,11.0,37,0.00,,,0.00,22.000000,,2013-03-26 02:32:00,
2013-03-25 20:43:00,33.0,10.0,-100.00,WSW,243,6.0,11.0,37,0.00,,,0.00,22.000000,,2013-03-26 02:43:00,
2013-03-25 20:52:00,33.0,10.0,-100.00,WSW,243,6.0,11.0,37,0.00,,,0.00,22.000000,,2013-03-26 02:52:00,
2013-03-25 21:02:00,33.0,10.0,-100.00,WSW,243,6.0,11.0,37,0.00,,,0.00,22.000000,,2013-03-26 03:02:00,
2013-03-25 21:34:00,32.0,10.0,-100.00,SW,214,8.0,10.0,39,0.00,,,0.00,0.000000,,2013-03-26 03:34:00,
2013-03-25 21:43:00,32.0,10.0,-100.00,SW,214,8.0,10.0,39,0.00,,,0.00,0.000000,,2013-03-26 03:43:00,
2013-03-25 21:53:00,32.0,10.0,-100.00,SW,214,8.0,10.0,39,0.00,,,0.00,0.000000,,2013-03-26 03:53:00,
2013-03-25 22:03:00,32.0,10.0,-100.00,SW,214,8.0,10.0,39,0.00,,,0.00,0.000000,,2013-03-26 04:03:00,
2013-03-25 22:33:00,31.0,11.0,-100.00,SSW,200,6.0,9.0,43,0.00,,,0.00,0.000000,,2013-03-26 04:33:00,
2013-03-25 22:43:00,31.0,11.0,-100.00,SSW,200,6.0,9.0,43,0.00,,,0.00,0.000000,,2013-03-26 04:43:00,
2013-03-25 22:52:00,31.0,11.0,-100.00,SSW,200,6.0,9.0,43,0.00,,,0.00,0.000000,,2013-03-26 04:52:00,
2013-03-25 23:02:00,31.0,11.0,-100.00,SSW,200,6.0,9.0,43,0.00,,,0.00,0.000000,,2013-03-26 05:02:00,
2013-03-25 23:32:00,31.0,12.0,-100.00,SSW,210,5.0,7.0,45,0.00,,,0.00,0.000000,,2013-03-26 05:32:00,
2013-03-25 23:42:00,31.0,12.0,-100.00,SSW,210,5.0,7.0,45,0.00,,,0.00,0.000000,,2013-03-26 05:42:00,
2013-03-25 23:52:00,31.0,12.0,-100.00,SSW,210,5.0,7.0,45,0.00,,,0.00,0.000000,,2013-03-26 05:52:00,